This is the latest recevied weather packets stored in our database for station/object K6GMW. If no packets are shown the sender has not sent any weather packets the latest 10 day(s).
| Time | Temp. | Humidity | Pressure | Rain* | Wind** | Luminosity | Snow |
|---|---|---|---|---|---|---|---|
| 1787935309 | 34.44° C | 52% | 1019.7 hPa | 0 mm | - | 857 W/m² | - |
| 1787935009 | 34.44° C | 51% | 1019.8 hPa | 0 mm | - | 832 W/m² | - |
| 1787934704 | 34.44° C | 52% | 1019.7 hPa | 0 mm | - | 823 W/m² | - |
| 1787934404 | 33.89° C | 53% | 1019.8 hPa | 0 mm | - | 815 W/m² | - |
| 1787934103 | 34.44° C | 52% | 1019.8 hPa | 0 mm | - | 809 W/m² | - |
| 1787933802 | 35° C | 51% | 1019.8 hPa | 0 mm | - | 804 W/m² | - |
| 1787933498 | 34.44° C | 52% | 1019.7 hPa | 0 mm | - | 784 W/m² | - |
| 1787933192 | 33.89° C | 48% | 1019.8 hPa | 0 mm | - | 776 W/m² | - |
| 1787932887 | 33.89° C | 53% | 1019.8 hPa | 0 mm | - | 770 W/m² | - |
| 1787932586 | 33.33° C | 52% | 1019.8 hPa | 0 mm | - | 751 W/m² | - |
| 1787932286 | 33.89° C | 55% | 1019.8 hPa | 0 mm | - | 743 W/m² | - |
| 1787931986 | 33.89° C | 56% | 1019.8 hPa | 0 mm | - | 727 W/m² | - |
| 1787931686 | 32.78° C | 61% | 1019.7 hPa | 0 mm | - | 706 W/m² | - |
| 1787931380 | 32.78° C | 61% | 1019.6 hPa | 0 mm | - | 704 W/m² | - |
| 1787931075 | 32.78° C | 63% | 1019.7 hPa | 0 mm | - | 689 W/m² | - |
| 1787930775 | 32.78° C | 63% | 1019.8 hPa | 0 mm | - | 673 W/m² | - |
| 1787930474 | 32.78° C | 63% | 1019.6 hPa | 0 mm | - | 651 W/m² | - |
| 1787930169 | 32.78° C | 64% | 1019.5 hPa | 0 mm | - | 633 W/m² | - |
| 1787929868 | 33.33° C | 63% | 1019.5 hPa | 0 mm | - | 610 W/m² | - |
| 1787929563 | 32.78° C | 63% | 1019.6 hPa | 0 mm | - | 603 W/m² | - |
| 1787929262 | 32.78° C | 64% | 1019.6 hPa | 0 mm | - | 588 W/m² | - |
| 1787928961 | 32.22° C | 66% | 1019.4 hPa | 0 mm | - | 567 W/m² | - |
| 1787928655 | 31.67° C | 68% | 1019.4 hPa | 0 mm | - | 547 W/m² | - |
| 1787928354 | 31.67° C | 69% | 1019.6 hPa | 0 mm | - | 528 W/m² | - |
| 1787928053 | 30.56° C | 72% | 1019.4 hPa | 0 mm | - | 508 W/m² | - |
* Rain latest hour (hover to see other rain measurements)
** Current wind speed in m/s (hover to see current wind gust speed)